Location: Altleiningen
(49.5078°N, 8.0741°E)
Time: 04:08:03
(UTC+00:00)

Cosmos 192 - Pass Details

Date: 03 March 2021
Orbit: 700 x 714 km, 74.0° (Epoch: 11 April)

Event Time Altitude Azimuth Distance (km) Brightness Sun altitude
Rises 19:15:23 0° 193° (SSW) 3,074 7.6 -20.4°
Reaches altitude 10° 19:17:42 10° 191° (S) 2,162 6.8 -20.7°
Maximum altitude 19:22:31 66° 110° (ESE) 768 4.2 -21.5°
Drops below altitude 10° 19:27:24 10° 28° (NNE) 2,184 6.7 -22.3°
Sets 19:29:45 0° 26° (NNE) 3,109 7.6 -22.6°
